Regional Weather Roundup
Issued by NWS

Home | Current Version | Previous Version | Graphics & Text | Print | Product List | Glossary On
Versions: 1 2 3 4 5 6 7 8 9 10 11 12 13 14 15 16 17 18 19 20 21 22 23 24 25 26 27 28 29 30 31 32 33 34 35 36 37 38 39 40 41 42 43 44 45 46 47 48 49 50
438
ASUS45 KBOI 061310
RWRID

IDAHO REGIONAL WEATHER ROUNDUP
NATIONAL WEATHER SERVICE BOISE ID
700 AM MDT FRI MAY 06 2016

NOTE: "FAIR" INDICATES FEW OR NO CLOUDS BELOW 12000 FEET
WITH NO SIGNIFICANT WEATHER AND/OR OBSTRUCTIONS TO VISIBILITY

IDZ012-014-061400-
SOUTHWEST IDAHO


CITY           SKY/WX    TMP DP  RH WIND       PRES   REMARKS
BOISE          CLOUDY    56  50  80 SW3       29.84S
CALDWELL       CLOUDY    57  49  74 W7        29.83R
MOUNTAIN HOME  MOCLDY    56  49  77 NW12      29.82F
$$

IDZ016-017-061400-
SOUTHCENTRAL IDAHO


CITY           SKY/WX    TMP DP  RH WIND       PRES   REMARKS
BURLEY         CLOUDY    52  46  80 SW6       29.87R
JEROME         CLOUDY    52  46  80 CALM      29.85R
TWIN FALLS     CLOUDY    48  43  82 S7        29.87R
$$

IDZ019>023-061400-
SOUTHEAST IDAHO


CITY           SKY/WX    TMP DP  RH WIND       PRES   REMARKS
IDAHO FALLS    CLOUDY    50  41  71 CALM      29.92R
POCATELLO      CLOUDY    58  44  60 E6        29.90R
REXBURG        CLOUDY    52  37  56 VRB3      29.92R
$$

IDZ006-010-011-018-031-032-061400-
CENTRAL IDAHO MOUNTAINS


CITY           SKY/WX    TMP DP  RH WIND       PRES   REMARKS
MCCALL         CLOUDY    53  42  66 NE9       29.95R
HAILEY         MOCLDY    54  43  66 NW9       29.94F
STANLEY          N/A     43  38  82 CALM      30.06R
SALMON         CLOUDY    54  43  66 CALM      30.00R
CHALLIS        RAIN      49  45  86 NW6       30.05R FOG
$$

IDZ002-004-006-007-026-061400-
NORTHERN IDAHO


CITY           SKY/WX    TMP DP  RH WIND       PRES   REMARKS
LEWISTON       MOCLDY    56  54  93 S3        29.96R
LOWELL           N/A     53  51  93 CALM      29.98R
COEUR D`ALENE  PTCLDY    55  46  71 N13       30.00R
MULLAN PASS    FOG       42  42 100 VRB6        N/A  VSB<1/4
$$




USA.gov is the U.S. government's official web portal to all federal, state and local government web resources and services.